Terminal Aerodrome Forecast
Issued by NWS

Home | Current Version | Previous Version | Text Only | Print | Product List | Glossary On
Versions: 1 2 3 4 5 6 7 8 9 10 11 12 13 14 15 16 17 18 19 20 21 22 23 24 25 26 27 28 29 30
000
FTUS46 KLOX 250531
TAFLAX
TAF
KLAX 250531Z 2506/2612 26013KT P6SM SCT150 BKN200
     FM250800 29009KT P6SM VCSH BKN070
     FM251300 32006KT P6SM VCSH BKN025 OVC050
     FM251700 25012KT P6SM BKN025
     FM252100 27015G22KT P6SM SCT025 BKN040
     FM260400 28012KT P6SM SCT030 BKN050
     FM260700 VRB04KT P6SM SCT050 BKN120=

USA.gov is the U.S. government's official web portal to all federal, state and local government web resources and services.